VA3XLC Weather Reports


Display with metric or nautical units.
time (UTC)temp
F
wind
direction
speed
MPH
gust
MPH
rain 1hr
in
rain 24hr
in
rain mn
in
humidity
%
barometer
mb
20260505010047 63 226 3.0 6.0 0.00 0.00 0.00 64 968.1
20260505005547 63 225 4.0 6.0 0.00 0.00 0.00 63 968.1
20260505005046 63 263 3.0 8.0 0.00 0.00 0.00 61 968.1
20260505004546 64 217 3.0 6.0 0.00 0.00 0.00 60 968.0
20260505004046 64 253 2.0 4.0 0.00 0.00 0.00 59 968.0
20260505003545 65 228 2.0 4.0 0.00 0.00 0.00 57 968.1
20260505003045 65 235 4.0 7.0 0.00 0.00 0.00 56 968.1
20260505002544 66 212 2.0 4.0 0.00 0.00 0.00 55 968.1
20260505002044 66 229 2.0 4.0 0.00 0.00 0.00 54 968.1
20260505001543 66 247 4.0 8.0 0.00 0.00 0.00 54 968.0
20260505001043 67 233 3.0 5.0 0.00 0.00 0.00 53 968.1
20260505000542 67 260 7.0 11.0 0.00 0.00 0.00 52 968.1
20260505000042 67 206 2.0 4.0 0.00 0.00 0.00 52 968.2
20260504235541 68 223 4.0 7.0 0.00 0.00 0.00 51 968.1
20260504235041 68 247 3.0 6.0 0.00 0.00 0.00 50 968.1
20260504234020 68 265 6.0 10.0 0.00 0.00 0.00 49 968.1
20260504233519 69 236 5.0 8.0 0.00 0.00 0.00 47 968.1
20260504233019 69 257 5.0 9.0 0.00 0.00 0.00 47 968.2
20260504231958 69 247 7.0 11.0 0.00 0.00 0.00 46 968.2
20260504231457 69 249 10.0 14.0 0.00 0.00 0.00 46 968.3
20260504230956 69 229 3.0 8.0 0.00 0.00 0.00 46 968.4
20260504230456 69 258 10.0 15.0 0.00 0.00 0.00 45 968.4
20260504225956 69 246 4.0 7.0 0.00 0.00 0.00 45 968.6
20260504225456 69 268 5.0 10.0 0.00 0.00 0.00 45 968.6
20260504224956 69 249 7.0 14.0 0.00 0.00 0.00 44 968.7
20260504224455 69 257 8.0 15.0 0.00 0.00 0.00 44 968.7
20260504223955 69 265 5.0 9.0 0.00 0.00 0.00 43 968.7
20260504222933 69 259 8.0 19.0 0.00 0.00 0.00 42 968.9
20260504222433 69 257 7.0 12.0 0.00 0.00 0.00 41 968.9
20260504221933 69 244 3.0 8.0 0.00 0.00 0.00 41 969.0
20260504221432 69 225 5.0 13.0 0.00 0.00 0.00 39 969.0
20260504220932 69 250 7.0 13.0 0.00 0.00 0.00 38 969.1
20260504215909 69 249 6.0 13.0 0.00 0.00 0.00 37 969.1
20260504215409 69 247 8.0 14.0 0.00 0.00 0.00 36 969.0
20260504214909 70 270 7.0 16.0 0.00 0.00 0.00 36 969.1
20260504214408 69 245 5.0 11.0 0.00 0.00 0.00 36 969.0
20260504213908 69 258 10.0 14.0 0.00 0.00 0.00 36 969.0
20260504213408 69 261 11.0 15.0 0.00 0.00 0.00 36 969.0
20260504212908 70 260 11.0 18.0 0.00 0.00 0.00 36 969.0
20260504211846 70 257 8.0 17.0 0.00 0.00 0.00 37 968.9
20260504211346 70 240 7.0 14.0 0.00 0.00 0.00 37 968.9
20260504210846 70 257 6.0 11.0 0.00 0.00 0.00 37 968.9
20260504210346 70 257 9.0 13.0 0.00 0.00 0.00 38 968.9
20260504205846 70 253 10.0 22.0 0.00 0.00 0.00 38 968.9
20260504205345 70 247 4.0 11.0 0.00 0.00 0.00 39 968.9
20260504204844 70 239 6.0 8.0 0.00 0.00 0.00 39 969.0
20260504204344 70 264 8.0 12.0 0.00 0.00 0.00 40 968.9
20260504203844 70 259 7.0 11.0 0.00 0.00 0.00 41 969.0
20260504203344 70 255 7.0 11.0 0.00 0.00 0.00 42 969.0
20260504202844 70 253 6.0 13.0 0.00 0.00 0.00 41 969.0
20260504202343 69 252 6.0 12.0 0.00 0.00 0.00 43 969.1
20260504201842 69 257 9.0 15.0 0.00 0.00 0.00 43 969.1
20260504201341 69 252 9.0 15.0 0.00 0.00 0.00 44 969.2
20260504200840 69 250 9.0 19.0 0.00 0.00 0.00 44 969.3
20260504195818 69 256 5.0 12.0 0.00 0.00 0.00 45 969.2
20260504194756 68 258 6.0 12.0 0.00 0.00 0.00 45 969.2
20260504194257 68 257 7.0 12.0 0.00 0.00 0.00 45 969.4
20260504193756 68 260 7.0 12.0 0.00 0.00 0.00 45 969.5
20260504193256 68 253 7.0 11.0 0.00 0.00 0.00 46 969.6
20260504192756 67 233 5.0 8.0 0.00 0.00 0.00 47 969.7
20260504192255 67 254 8.0 13.0 0.00 0.00 0.00 47 969.8
20260504190712 67 241 5.0 9.0 0.00 0.00 0.00 48 970.0
20260504190212 67 238 6.0 11.0 0.00 0.00 0.00 48 969.9
20260504185151 67 214 6.0 9.0 0.00 0.00 0.00 48 970.0
20260504184649 67 241 4.0 10.0 0.00 0.00 0.00 49 970.1
20260504184149 67 240 5.0 10.0 0.00 0.00 0.00 49 970.2
20260504183649 67 249 6.0 10.0 0.00 0.00 0.00 50 970.2
20260504183148 67 216 6.0 11.0 0.00 0.00 0.00 50 970.2
20260504182648 67 256 6.0 9.0 0.00 0.00 0.00 50 970.2
20260504182148 66 246 7.0 11.0 0.00 0.00 0.00 51 970.2
20260504181127 67 258 7.0 12.0 0.00 0.00 0.00 49 970.4
20260504180626 66 264 6.0 10.0 0.00 0.00 0.00 50 970.4
20260504180125 65 235 3.0 6.0 0.00 0.00 0.00 52 970.5
20260504175625 65 237 7.0 12.0 0.00 0.00 0.00 52 970.6
20260504175125 65 262 5.0 7.0 0.00 0.00 0.00 54 970.6
20260504174625 64 260 8.0 13.0 0.00 0.00 0.00 55 970.7
20260504174124 64 236 6.0 10.0 0.00 0.00 0.00 56 970.8
20260504173623 65 250 6.0 11.0 0.00 0.00 0.00 55 970.9
20260504173123 65 229 4.0 8.0 0.00 0.00 0.00 54 970.8
20260504172623 65 226 3.0 5.0 0.00 0.00 0.00 55 970.9
20260504172123 65 263 7.0 10.0 0.00 0.00 0.00 54 970.9
20260504171623 65 257 6.0 12.0 0.00 0.00 0.00 54 971.0
20260504171122 65 212 4.0 7.0 0.00 0.00 0.00 55 971.0
20260504170622 65 252 8.0 13.0 0.00 0.00 0.00 55 971.0
20260504170122 65 257 7.0 13.0 0.00 0.00 0.00 55 971.0
20260504150930 62 218 3.0 5.0 0.00 0.00 0.00 57 972.1
20260504150430 62 248 6.0 12.0 0.00 0.00 0.00 56 972.1
20260504140906 58 269 7.0 12.0 0.00 0.00 0.00 60 972.4
20260504140406 58 251 5.0 6.0 0.00 0.00 0.00 61 972.5
20260504120215 50 253 7.0 11.0 0.00 0.00 0.00 72 973.1
20260504110629 46 227 3.0 4.0 0.00 0.00 0.00 75 973.2
20260504110129 46 215 2.0 3.0 0.00 0.00 0.00 75 973.2
20260504100442 47 222 3.0 4.0 0.00 0.00 0.00 72 973.2
20260504081813 49 260 5.0 9.0 0.00 0.00 0.00 67 973.4
20260504081313 50 258 5.0 9.0 0.00 0.00 0.00 66 973.5
20260504080813 50 258 5.0 9.0 0.00 0.00 0.00 66 973.5
20260504080312 50 261 5.0 8.0 0.00 0.00 0.00 65 973.4
20260504050536 52 270 9.0 13.0 0.00 0.00 0.00 56 975.3
20260504045535 52 263 10.0 14.0 0.00 0.00 0.00 57 975.3
20260504045035 52 262 9.0 11.0 0.00 0.00 0.00 57 975.3
20260504044535 52 264 10.0 18.0 0.00 0.00 0.00 57 975.3
20260504044034 52 278 9.0 13.0 0.00 0.00 0.00 57 975.3
20260504043534 53 264 7.0 11.0 0.00 0.00 0.00 57 975.3
20260504043034 53 271 6.0 10.0 0.00 0.00 0.00 57 975.3
20260504042533 53 259 7.0 14.0 0.00 0.00 0.00 57 975.4
20260504042033 53 266 8.0 15.0 0.00 0.00 0.00 57 975.4
20260504041533 53 260 6.0 10.0 0.00 0.00 0.00 57 975.4
20260504041032 53 276 7.0 12.0 0.00 0.00 0.00 56 975.4
20260504040532 53 268 9.0 14.0 0.00 0.00 0.00 56 975.5
20260504040032 53 265 12.0 16.0 0.00 0.00 0.00 56 975.5
20260504035531 53 269 10.0 16.0 0.00 0.00 0.00 55 975.5
20260504035031 53 281 8.0 15.0 0.00 0.00 0.00 55 975.6
20260504034531 54 269 10.0 15.0 0.00 0.00 0.00 55 975.6
20260504034031 54 270 13.0 17.0 0.00 0.00 0.00 54 975.7
20260504033531 54 266 10.0 19.0 0.00 0.00 0.00 54 975.6
20260504033030 54 257 11.0 22.0 0.00 0.00 0.00 53 975.7
20260504032530 54 267 7.0 11.0 0.00 0.00 0.00 53 975.7
20260504032030 54 274 11.0 15.0 0.00 0.00 0.00 53 975.8
20260504031530 54 268 12.0 16.0 0.00 0.00 0.00 53 975.8
20260504030508 55 280 12.0 19.0 0.00 0.00 0.00 54 975.8
20260504030008 55 260 9.0 14.0 0.00 0.00 0.00 54 975.8
20260504025508 55 255 10.0 14.0 0.00 0.00 0.00 53 975.8
20260504025007 55 270 10.0 14.0 0.00 0.00 0.00 53 975.8
20260504023946 55 274 11.0 16.0 0.00 0.00 0.00 52 975.8
20260504022925 55 283 8.0 13.0 0.00 0.00 0.00 50 975.7
20260504022424 55 274 10.0 14.0 0.00 0.00 0.00 49 975.7
20260504021924 55 284 9.0 12.0 0.00 0.00 0.00 49 975.7
20260504021424 55 255 10.0 14.0 0.00 0.00 0.00 48 975.7
20260504020924 55 267 5.0 7.0 0.00 0.00 0.00 48 975.6
20260504020423 56 272 7.0 10.0 0.00 0.00 0.00 48 975.6
20260504015922 56 274 8.0 11.0 0.00 0.00 0.00 48 975.6
20260504014901 56 271 11.0 16.0 0.00 0.00 0.00 47 975.5
20260504014401 56 255 9.0 17.0 0.00 0.00 0.00 47 975.5
20260504013900 56 267 8.0 11.0 0.00 0.00 0.00 46 975.5
20260504013400 56 272 12.0 16.0 0.00 0.00 0.00 46 975.4
20260504012900 56 283 7.0 10.0 0.00 0.00 0.00 46 975.4
20260504012400 56 275 9.0 14.0 0.00 0.00 0.00 46 975.4
20260504011900 56 259 4.0 7.0 0.00 0.00 0.00 47 975.3
20260504010838 56 266 7.0 13.0 0.00 0.00 0.00 47 975.3
20260504010338 56 251 4.0 8.0 0.00 0.00 0.00 47 975.3